Latest Weather Observations for Mount Boyce

IDN60801

Issued at 4:35 pm EDT Friday 31 October 2014 (issued every 30 minutes, with the page automatically refreshed every 10 minutes)

About weather observations | Map of weather stations | Latest weather observations for NSW | Other Formats
Station Details ID: 063292 Name: MOUNT BOYCE AWS Lat: -33.62 Lon: 150.27 Height: 1080.0 m
Data from the previous 72 hours. | See also: Recent months at Mount Boyce
Date/Time
EDT
Temp
°C
App
Temp
°C
Dew
Point
Rel
Hum
%
Delta-T
°C
Wind Press
QNH
hPa
Press
MSL
hPa
Rain
since 9 am
mm
Dir
 
Spd
km/h
Gust
km/h
Spd
kts
Gust
kts
31/04:30pm 27.0 22.5 -0.1 17 13.3 WNW 13 20 7 11 - - 0.0
31/04:00pm 26.7 21.8 -0.3 17 13.2 WNW 15 26 8 14 - - 0.0
31/03:30pm 26.8 21.3 -2.0 15 13.7 WNW 17 30 9 16 - - 0.0
31/03:00pm 27.2 22.3 -0.8 16 13.6 WNW 15 24 8 13 - - 0.0
31/02:30pm 27.2 21.5 -0.8 16 13.6 WSW 19 24 10 13 - - 0.0
31/02:00pm 26.5 21.2 -0.5 17 13.1 WNW 17 39 9 21 - - 0.0
31/01:30pm 26.6 20.8 -0.4 17 13.2 NNW 20 35 11 19 - - 0.0
31/01:00pm 26.3 22.3 2.9 22 12.1 NW 13 19 7 10 - - 0.0
31/12:30pm 26.0 21.4 1.3 20 12.4 NW 15 24 8 13 - - 0.0
31/12:00pm 25.3 20.7 1.4 21 11.9 W 15 32 8 17 - - 0.0
31/11:30am 25.1 21.1 0.6 20 12.1 NW 11 17 6 9 - - 0.0
31/11:00am 24.1 18.6 0.4 21 11.5 WNW 19 28 10 15 - - 0.0
31/10:30am 23.6 19.0 1.3 23 11.0 WNW 15 24 8 13 - - 0.0
31/10:00am 23.0 19.2 4.0 29 9.8 WNW 13 20 7 11 - - 0.0
31/09:30am 22.3 19.3 3.9 30 9.4 WNW 9 15 5 8 - - 0.0
31/09:00am 21.9 18.8 3.6 30 9.3 NNW 9 19 5 10 - - 0.0
31/08:30am 20.8 17.6 3.1 31 8.9 NNW 9 17 5 9 - - 0.0
31/08:00am 20.1 16.3 2.0 30 8.8 N 11 20 6 11 - - 0.0
31/07:30am 18.9 15.6 2.7 34 7.9 NE 9 13 5 7 - - 0.0
31/07:00am 18.2 14.6 0.8 31 8.2 NE 9 17 5 9 - - 0.0
31/06:30am 18.0 13.9 -0.3 29 8.4 NE 11 17 6 9 - - 0.0
31/06:00am 18.3 14.1 -1.0 27 8.7 NNE 11 15 6 8 - - 0.0
31/05:30am 18.2 14.0 -1.1 27 8.7 N 11 13 6 7 - - 0.0
31/05:00am 18.3 14.1 -1.0 27 8.7 N 11 13 6 7 - - 0.0
31/04:30am 18.0 14.2 -0.8 28 8.5 NNW 9 9 5 5 - - 0.0
31/04:00am 17.1 13.8 -0.1 31 7.9 NW 7 9 4 5 - - 0.0
31/03:30am 17.1 13.9 -0.6 30 8.0 NW 6 7 3 4 - - 0.0
31/03:00am 16.7 13.6 -0.1 32 7.7 NW 6 9 3 5 - - 0.0
31/02:30am 16.9 13.8 0.1 32 7.7 WNW 6 7 3 4 - - 0.0
31/02:00am 16.9 13.6 0.1 32 7.7 NW 7 7 4 4 - - 0.0
31/01:30am 16.6 13.3 -0.1 32 7.6 WNW 7 9 4 5 - - 0.0
31/01:00am 17.4 14.4 0.6 32 7.8 NW 6 9 3 5 - - 0.0
31/12:30am 16.9 13.7 0.5 33 7.6 NW 7 11 4 6 - - 0.0
31/12:00am 17.6 14.4 0.7 32 7.9 NNW 7 9 4 5 - - 0.0
 
Date/Time
EDT
Temp
°C
App
Temp
°C
Dew
Point
Rel
Hum
%
Delta-T
°C
Wind Press
QNH
hPa
Press
MSL
hPa
Rain
since 9 am
mm
Dir
 
Spd
km/h
Gust
km/h
Spd
kts
Gust
kts
30/11:30pm 16.9 13.7 0.5 33 7.6 NW 7 9 4 5 - - 0.0
30/11:00pm 16.9 13.9 0.5 33 7.6 W 6 7 3 4 - - 0.0
30/10:30pm 16.8 13.8 0.9 34 7.4 W 6 9 3 5 - - 0.0
30/10:00pm 17.4 15.6 1.0 33 7.7 CALM 0 2 0 1 - - 0.0
30/09:30pm 17.8 14.7 1.3 33 7.8 WSW 7 11 4 6 - - 0.0
30/09:00pm 17.7 13.9 1.7 34 7.6 W 11 15 6 8 - - 0.0
30/08:30pm 18.2 14.1 2.1 34 7.8 W 13 19 7 10 - - 0.0
30/08:00pm 18.7 14.6 2.1 33 8.0 W 13 22 7 12 - - 0.0
30/07:30pm 19.4 15.2 1.9 31 8.5 W 13 20 7 11 - - 0.0
30/07:00pm 21.0 15.7 1.8 28 9.4 W 19 35 10 19 - - 0.0
30/06:30pm 21.9 16.0 1.5 26 10.0 WSW 22 33 12 18 - - 0.0
30/06:00pm 22.8 16.9 1.8 25 10.4 WSW 22 33 12 18 - - 0.0
30/05:30pm 22.9 16.6 1.8 25 10.5 WSW 24 37 13 20 - - 0.0
30/05:00pm 22.7 15.9 1.1 24 10.5 W 26 41 14 22 - - 0.0
30/04:30pm 22.9 15.8 1.3 24 10.6 W 28 43 15 23 - - 0.0
30/04:00pm 22.8 16.3 0.6 23 10.7 WSW 24 41 13 22 - - 0.0
30/03:43pm 22.8 15.6 0.6 23 10.7 WSW 28 46 15 25 - - 0.0
30/03:30pm 22.9 16.8 0.1 22 10.9 WSW 22 44 12 24 - - 0.0
30/03:10pm 22.5 14.9 0.4 23 10.6 WSW 30 48 16 26 - - 0.0
30/03:00pm 22.4 14.8 0.3 23 10.6 W 30 46 16 25 - - 0.0
30/02:57pm 23.1 15.9 0.9 23 10.8 W 28 46 15 25 - - 0.0
30/02:30pm 23.0 16.9 3.0 27 10.1 WSW 24 35 13 19 - - 0.0
30/02:00pm 21.1 14.9 2.4 29 9.3 W 24 37 13 20 - - 0.0
30/01:30pm 20.9 15.4 4.0 33 8.6 W 22 39 12 21 - - 0.0
30/01:00pm 20.1 15.0 4.2 35 8.1 W 20 33 11 18 - - 0.0
30/12:30pm 19.2 13.9 3.0 34 8.0 W 20 35 11 19 - - 0.0
30/12:00pm 19.1 14.4 3.3 35 7.8 WSW 17 28 9 15 - - 0.0
30/11:30am 17.8 13.1 3.3 38 7.1 W 17 24 9 13 - - 0.0
30/11:00am 17.1 11.9 2.7 38 7.0 W 19 26 10 14 - - 0.0
30/10:30am 16.6 11.0 3.6 42 6.4 W 22 35 12 19 - - 0.0
30/10:00am 16.6 11.6 4.6 45 6.0 WSW 20 28 11 15 - - 0.0
30/09:30am 16.4 11.4 4.8 46 5.8 WSW 20 28 11 15 - - 0.0
30/09:00am 15.3 9.6 4.7 49 5.3 W 24 32 13 17 - - 0.0
30/08:30am 14.6 9.4 3.4 47 5.4 W 20 28 11 15 - - 0.0
30/08:00am 13.9 8.9 3.7 50 4.9 W 19 28 10 15 - - 0.0
30/07:30am 12.8 7.6 3.5 53 4.4 W 20 30 11 16 - - 0.0
30/07:00am 12.5 7.3 3.5 54 4.3 W 20 30 11 16 - - 0.0
30/06:30am 12.1 6.9 3.3 55 4.1 W 20 26 11 14 - - 0.0
30/06:00am 11.6 6.7 3.9 59 3.7 W 19 26 10 14 - - 0.0
30/05:30am 11.4 7.0 4.6 63 3.3 W 17 20 9 11 - - 0.0
30/05:00am 11.2 7.1 4.4 63 3.3 W 15 19 8 10 - - 0.0
30/04:30am 10.7 7.0 4.6 66 2.9 W 13 17 7 9 - - 0.0
30/04:00am 10.6 7.2 5.8 72 2.4 W 13 17 7 9 - - 0.0
30/03:30am 10.5 7.4 7.2 80 1.7 W 13 17 7 9 - - 0.0
30/03:00am 11.0 8.5 8.4 84 1.4 W 11 13 6 7 - - 0.0
30/02:30am 11.1 8.7 8.8 86 1.2 W 11 15 6 8 - - 0.0
30/02:00am 11.1 8.9 9.4 89 0.9 W 11 13 6 7 - - 0.0
30/01:30am 11.2 9.7 9.3 88 1.0 W 7 9 4 5 - - 0.0
30/01:00am 11.2 9.6 8.8 85 1.3 W 7 11 4 6 - - 0.0
30/12:30am 11.3 10.7 10.5 95 0.4 N 4 7 2 4 - - 0.0
30/12:00am 11.4 10.3 10.8 96 0.3 NNE 7 9 4 5 - - 0.0
 
Date/Time
EDT
Temp
°C
App
Temp
°C
Dew
Point
Rel
Hum
%
Delta-T
°C
Wind Press
QNH
hPa
Press
MSL
hPa
Rain
since 9 am
mm
Dir
 
Spd
km/h
Gust
km/h
Spd
kts
Gust
kts
29/11:58pm 11.3 10.2 10.7 96 0.3 NNE 7 9 4 5 - - 0.0
29/11:30pm 11.0 9.7 10.1 94 0.5 NE 7 9 4 5 - - 0.0
29/11:25pm 11.0 9.9 9.9 93 0.6 NE 6 9 3 5 - - 0.0
29/11:00pm 11.4 10.3 10.1 92 0.7 N 6 11 3 6 - - 0.0
29/10:52pm 11.5 10.3 10.4 93 0.6 N 7 11 4 6 - - 0.0
29/10:42pm 11.3 9.8 10.4 94 0.5 N 9 11 5 6 - - 0.0
29/10:30pm 11.1 9.5 10.2 94 0.5 NE 9 11 5 6 - - 0.0
29/10:19pm 11.3 9.8 10.4 94 0.5 ENE 9 13 5 7 - - 0.0
29/10:07pm 11.3 9.3 10.2 93 0.6 ENE 11 13 6 7 - - 0.0
29/10:00pm 11.4 9.4 10.3 93 0.6 ENE 11 13 6 7 - - 0.0
29/09:30pm 11.7 9.7 10.1 90 0.9 ENE 11 13 6 7 - - 0.0
29/09:00pm 12.2 10.2 10.1 87 1.1 ENE 11 15 6 8 - - 0.0
29/08:30pm 12.8 10.7 9.8 82 1.6 ENE 11 15 6 8 - - 0.0
29/08:00pm 13.6 11.5 9.6 77 2.2 ENE 11 17 6 9 - - 0.0
29/07:30pm 14.8 12.9 9.0 68 3.1 ENE 9 15 5 8 - - 0.0
29/07:00pm 17.2 15.3 9.1 59 4.4 NE 9 13 5 7 - - 0.0
29/06:30pm 20.6 16.9 4.2 34 8.4 W 13 22 7 12 - - 0.0
29/06:00pm 20.9 16.0 4.0 33 8.6 WSW 19 28 10 15 - - 0.0
29/05:30pm 22.4 18.9 5.4 33 9.0 W 13 24 7 13 - - 0.0
29/05:00pm 21.5 15.9 3.2 30 9.2 WSW 22 30 12 16 - - 0.0
29/04:30pm 22.2 17.2 3.8 30 9.4 WSW 19 30 10 16 - - 0.0
29/04:00pm 21.6 16.6 3.8 31 9.1 WSW 19 30 10 16 - - 0.0
29/03:30pm 21.9 18.2 4.5 32 9.0 WNW 13 24 7 13 - - 0.0
29/03:00pm 21.3 17.7 4.8 34 8.6 W 13 28 7 15 - - 0.0
29/02:30pm 20.8 16.8 4.8 35 8.3 WSW 15 26 8 14 - - 0.0
29/02:00pm 21.6 18.2 5.9 36 8.3 WNW 13 24 7 13 - - 0.0
29/01:30pm 20.0 16.5 5.3 38 7.6 W 13 20 7 11 - - 0.0
29/01:00pm 19.4 16.2 5.1 39 7.4 W 11 22 6 12 - - 0.0
29/12:30pm 19.1 15.5 5.2 40 7.2 W 13 20 7 11 - - 0.0
29/12:00pm 19.0 16.8 6.1 43 6.8 W 7 20 4 11 - - 0.0
29/11:30am 16.6 12.0 3.6 42 6.4 W 17 20 9 11 - - 0.0
29/11:00am 16.2 13.2 3.9 44 6.1 W 9 17 5 9 - - 0.0
29/10:30am 15.4 12.2 5.0 50 5.2 WNW 11 17 6 9 - - 0.0
29/10:00am 14.2 10.7 5.6 56 4.3 W 13 17 7 9 - - 0.0
29/09:30am 12.7 8.7 4.9 59 3.8 W 15 22 8 12 - - 0.0
29/09:00am 12.1 7.7 5.0 62 3.5 W 17 22 9 12 - - 0.0
29/08:30am 10.8 6.4 4.7 66 2.9 W 17 24 9 13 - - 0.0
29/08:00am 10.0 5.2 4.8 70 2.5 W 19 28 10 15 - - 0.0
29/07:30am 9.3 4.9 4.7 73 2.2 W 17 24 9 13 - - 0.0
29/07:00am 8.9 4.1 4.5 74 2.1 WSW 19 24 10 13 - - 0.0
29/06:30am 8.7 4.2 4.3 74 2.1 WSW 17 24 9 13 - - 0.0
29/06:00am 8.7 3.8 4.3 74 2.1 WSW 19 24 10 13 - - 0.0
29/05:30am 8.9 3.8 4.3 73 2.2 WSW 20 28 11 15 - - 0.0
29/05:00am 8.8 3.7 4.2 73 2.2 WSW 20 33 11 18 - - 0.0
29/04:30am 9.0 2.4 4.0 71 2.3 WSW 28 39 15 21 - - 0.0
29/04:00am 9.2 2.1 3.8 69 2.5 WSW 30 39 16 21 - - 0.0
29/03:30am 9.1 3.1 3.5 68 2.6 WSW 24 32 13 17 - - 0.0
29/03:00am 9.3 3.3 3.3 66 2.8 WSW 24 32 13 17 - - 0.0
29/02:30am 9.6 3.6 3.4 65 2.9 WSW 24 33 13 18 - - 0.0
29/02:00am 9.7 3.7 3.2 64 3.0 WSW 24 35 13 19 - - 0.0
29/01:38am 10.0 2.8 3.1 62 3.2 WSW 30 48 16 26 - - 0.0
29/01:30am 10.2 2.4 3.0 61 3.3 WSW 33 48 18 26 - - 0.0
29/01:00am 10.6 2.4 2.9 59 3.6 WSW 35 48 19 26 - - 0.0
29/12:30am 10.9 2.7 2.5 56 3.9 WSW 35 50 19 27 - - 0.0
29/12:00am 11.1 2.8 2.2 54 4.1 WSW 35 48 19 26 - - 0.0
 
Date/Time
EDT
Temp
°C
App
Temp
°C
Dew
Point
Rel
Hum
%
Delta-T
°C
Wind Press
QNH
hPa
Press
MSL
hPa
Rain
since 9 am
mm
Dir
 
Spd
km/h
Gust
km/h
Spd
kts
Gust
kts
28/11:30pm 11.3 2.9 1.8 52 4.3 WSW 35 56 19 30 - - 0.0
28/11:00pm 11.5 3.1 1.7 51 4.4 WSW 35 54 19 29 - - 0.0
28/10:43pm 11.6 3.2 1.5 50 4.6 WSW 35 54 19 29 - - 0.0
28/10:30pm 11.7 3.3 1.4 49 4.6 WSW 35 50 19 27 - - 0.0
28/10:00pm 12.0 4.1 1.3 48 4.8 WSW 32 50 17 27 - - 0.0
28/09:38pm 12.2 4.7 1.2 47 5.0 WSW 30 48 16 26 - - 0.0
28/09:30pm 12.3 4.8 1.0 46 5.1 WSW 30 46 16 25 - - 0.0
28/09:00pm 12.4 4.9 1.1 46 5.1 W 30 48 16 26 - - 0.0
28/08:30pm 12.8 4.9 1.2 45 5.3 W 32 50 17 27 - - 0.0
28/08:04pm 13.0 5.1 1.0 44 5.4 W 32 50 17 27 - - 0.0
28/08:00pm 13.1 5.0 0.8 43 5.5 W 33 50 18 27 - - 0.0
28/07:33pm 13.5 5.6 0.9 42 5.7 W 32 50 17 27 - - 0.0
28/07:30pm 13.4 5.8 0.8 42 5.7 W 30 44 16 24 - - 0.0
28/07:04pm 14.4 6.8 0.6 39 6.3 W 30 52 16 28 - - 0.0
28/07:00pm 14.6 6.7 0.8 39 6.3 WSW 32 44 17 24 - - 0.0
28/06:30pm 15.5 6.9 0.1 35 7.0 WSW 35 56 19 30 - - 0.0
28/06:00pm 15.8 7.1 -0.4 33 7.3 WSW 35 54 19 29 - - 0.0
28/05:31pm 16.7 8.7 0.4 33 7.5 WSW 32 61 17 33 - - 0.0
28/05:30pm 16.8 9.3 0.9 34 7.4 WSW 30 44 16 24 - - 0.0
28/05:00pm 17.0 8.5 0.6 33 7.6 W 35 56 19 30 - - 0.0

Other Formats:

Comma delimited format used in spreadsheet applications
http://www.bom.gov.au/fwo/IDN60801/IDN60801.94743.axf

JavaScript Object Notation format (JSON) in row-major order
http://www.bom.gov.au/fwo/IDN60801/IDN60801.94743.json